Regional Weather Roundup
Issued by NWS Cleveland, OH

Home | Current Version | Previous Version | Text Only | Print | Product List | Glossary Off
Versions: 1 2 3 4 5 6 7 8 9 10 11 12 13 14 15 16 17 18 19 20 21 22 23 24 25 26 27 28 29 30 31 32 33 34 35 36 37 38 39 40 41 42 43 44 45 46 47 48 49 50

158
ASUS41 KCLE 281600
RWRCLE
OHIO REGIONAL WEATHER ROUNDUP
NATIONAL WEATHER SERVICE WILMINGTON, OH
1100 AM EST TUE FEB 28 2017

NOTE: "FAIR" INDICATES FEW OR NO CLOUDS BELOW 12,000 FEET WITH NO
SIGNIFICANT WEATHER AND/OR OBSTRUCTIONS TO VISIBILITY.

OHZ001>008-015>018-024>027-034-035-043-044-281700-
   NORTHWEST OHIO

CITY           SKY/WX    TMP DP  RH WIND       PRES   REMARKS
DEFIANCE       CLOUDY    46  44  93 S7        29.96F
FINDLAY        CLOUDY    49  43  80 S17       29.98F
TOLEDO EXPRESS CLOUDY    44  44 100 SE6       29.97F FOG
TOLEDO EXEC    CLOUDY    48  45  89 S12       29.99F
LIMA           CLOUDY    48  47  96 S13       29.98F
$$

OHZ009>014-019>023-028>033-038-089-281700-
   NORTHEAST OHIO

CITY           SKY/WX    TMP DP  RH WIND       PRES   REMARKS
CLE-HOPKINS    CLOUDY    57  39  51 S16G23    30.05F
CLE-LAKEFRONT  CLOUDY    55  38  52 S16G25    30.02F
CUY CO. ARPT   NOT AVBL
LORAIN-ELYRIA  CLOUDY    50  38  63 S17       30.03F
ASHTABULA      PTSUNNY   53  39  59 SE15G22   30.06F
AKRON-CANTON   CLOUDY    52  37  56 S15       30.07F
WOOSTER        NOT AVBL
MANSFIELD      CLOUDY    50  41  71 S16       30.03F
YOUNGSTOWN     CLOUDY    53  36  52 SE14      30.11F
$$

OHZ042-051>053-060>062-070>072-077>081-281700-
  SOUTHWEST OHIO

CITY           SKY/WX    TMP DP  RH WIND       PRES   REMARKS
CINC-COVINGTON TSTM      50  48  93 SE15      30.06R FOG
CINC-LUNKEN    LGT RAIN  50  49  96 W9        30.09R
HAMILTON       RAIN      50  50 100 VRB5      30.05R FOG
DAYTON         NOT AVBL
WRIGHT-PAT AFB CLOUDY    52  52 100 S12G20    30.02F
DAYTON GENERAL CLOUDY    50  49  96 S13       30.02S
WILMINGTON     PTSUNNY   49  49 100 S17       30.03F
$$

OHZ036-037-039>041-045>050-054>059-063>069-073>076-082>088-281700-
  CENTRAL AND SOUTHEAST OHIO

CITY           SKY/WX    TMP DP  RH WIND       PRES   REMARKS
COLUMBUS       LGT RAIN  49  44  83 SE8       30.06F
OSU AIRPORT    CLOUDY    47  45  93 SE12      30.04F
BOLTON FIELD   LGT RAIN  45  43  93 S13       30.05F
RICKENBACK AFB NOT AVBL
NEWARK         LGT RAIN  50  43  77 S13G18    30.08S
MARION         CLOUDY    50  43  77 S17       30.03S
LANCASTER      LGT RAIN  48  43  82 SE10      30.07F
ZANESVILLE     LGT RAIN  48  41  76 S10       30.10F
NEW PHILLY     CLOUDY    50  38  63 S3        30.10F
$$




USA.gov is the U.S. government's official web portal to all federal, state and local government web resources and services.